Location: ??????
(55.7522°N, 37.6156°E)
Time: 18:14:09
(UTC+00:00)

USA 229 - Pass Details

Date: 14 June 2025
Orbit: 856 x 1355 km, 63.4° (Epoch: 26 June)

Event Time Altitude Azimuth Distance (km) Brightness Sun altitude
Rises 22:21:32 0° 309° (NW) 3,885 7.0 -10.2°
Reaches altitude 10° 22:24:04 10° 308° (NW) 2,994 6.4 -10.1°
Maximum altitude 22:31:16 75° 225° (SW) 1,260 4.0 -9.9°
Drops below altitude 10° 22:39:19 10° 142° (SE) 3,316 5.9 -9.6°
Sets 22:42:15 0° 141° (SE) 4,324 6.5 -9.5°
